When you browse on this site, cookies collect data to enhance your experience and personalize the content and advertising you see.
Visit our Privacy Policy to learn more. By continuing to use the site, you agree to this use of cookies and data.
  • In Latvia
  • List of Countries
  • For 7 days
  • Water Temperature
  • Weather Map
  • Weather Widgets
  • user-avatar
    Login

    Hourly Weather Monthey

    Today, 14 December, Saturday

    Time Temperature Precipitation Wind Pressure Humidity
    00:00 +1°C° 0 mm 2 mps 684 mmHg 92%
    01:00 0°C° 1 mm 3 mps 684 mmHg 93%
    02:00 +1°C° 1 mm 3 mps 684 mmHg 94%
    03:00 +2°C° 1 mm 3 mps 684 mmHg 95%
    04:00 +3°C° 1.4 mm 3 mps 685 mmHg 96%
    05:00 +4°C° 1.4 mm 4 mps 685 mmHg 97%
    06:00 +6°C° 0 mm 5 mps 685 mmHg 99%
    07:00 +5°C° 0.8 mm 4 mps 686 mmHg 98%
    08:00 +5°C° 0.8 mm 4 mps 687 mmHg 98%
    09:00 +5°C° 0.8 mm 4 mps 688 mmHg 97%
    10:00 +5°C° 0.6 mm 4 mps 689 mmHg 97%
    11:00 +5°C° 0.6 mm 3 mps 689 mmHg 97%
    12:00 +5°C° 0 mm 3 mps 689 mmHg 98%
    13:00 +5°C° 0.6 mm 3 mps 690 mmHg 98%
    14:00 +5°C° 0.6 mm 3 mps 690 mmHg 97%
    15:00 +7°C° 0.6 mm 3 mps 691 mmHg 97%
    16:00 +7°C° 0.2 mm 3 mps 691 mmHg 95%
    17:00 +5°C° 0.2 mm 3 mps 691 mmHg 93%
    18:00 +5°C° 0.2 mm 3 mps 692 mmHg 91%
    19:00 +5°C° 0.3 mm 3 mps 692 mmHg 90%
    20:00 +5°C° 0.3 mm 3 mps 692 mmHg 90%
    21:00 +6°C° 0.3 mm 2 mps 692 mmHg 89%
    22:00 +5°C° 0.1 mm 3 mps 692 mmHg 89%
    23:00 +5°C° 0.1 mm 3 mps 692 mmHg 88%

    Tomorrow, 15 December, Sunday

    Time Temperature Precipitation Wind Pressure Humidity
    00:00 +5°C° 0.1 mm 3 mps 692 mmHg 87%
    01:00 +5°C° 0.1 mm 3 mps 692 mmHg 88%
    02:00 +5°C° 0.1 mm 3 mps 692 mmHg 88%
    03:00 +5°C° 0.1 mm 3 mps 692 mmHg 88%
    04:00 +5°C° 0 mm 3 mps 692 mmHg 88%
    05:00 +4°C° 0 mm 3 mps 692 mmHg 88%
    06:00 +4°C° 0 mm 3 mps 692 mmHg 88%
    07:00 +5°C° 0 mm 3 mps 693 mmHg 89%
    08:00 +5°C° 0 mm 3 mps 693 mmHg 90%
    09:00 +7°C° 0 mm 2 mps 694 mmHg 91%
    10:00 +7°C° 0 mm 2 mps 693 mmHg 92%
    11:00 +8°C° 0 mm 2 mps 693 mmHg 93%
    12:00 +8°C° 0 mm 2 mps 693 mmHg 94%
    13:00 +8°C° 0 mm 2 mps 693 mmHg 92%
    14:00 +7°C° 0 mm 2 mps 693 mmHg 90%
    15:00 +7°C° 0 mm 2 mps 693 mmHg 89%
    16:00 +6°C° 0 mm 2 mps 693 mmHg 85%
    17:00 +6°C° 0 mm 2 mps 693 mmHg 81%
    18:00 +5°C° 0 mm 2 mps 694 mmHg 76%
    19:00 +4°C° 0 mm 3 mps 694 mmHg 76%
    20:00 +4°C° 0 mm 3 mps 694 mmHg 76%
    21:00 +3°C° 0 mm 3 mps 694 mmHg 76%
    22:00 +3°C° 0 mm 3 mps 694 mmHg 77%
    23:00 +3°C° 0 mm 3 mps 694 mmHg 78%

    Day after tomorrow, 16 December, Monday

    Time Temperature Precipitation Wind Pressure Humidity
    00:00 +3°C° 0 mm 3 mps 694 mmHg 79%
    01:00 +3°C° 0 mm 3 mps 694 mmHg 79%
    02:00 +3°C° 0 mm 3 mps 694 mmHg 80%
    03:00 +3°C° 0 mm 3 mps 694 mmHg 81%
    04:00 +3°C° 0 mm 3 mps 694 mmHg 81%
    05:00 +3°C° 0 mm 4 mps 694 mmHg 81%
    06:00 +3°C° 0 mm 4 mps 694 mmHg 82%
    07:00 +4°C° 0 mm 4 mps 694 mmHg 82%
    08:00 +4°C° 0 mm 4 mps 694 mmHg 82%
    09:00 +5°C° 0 mm 4 mps 694 mmHg 83%
    10:00 +6°C° 0 mm 4 mps 694 mmHg 85%
    11:00 +6°C° 0 mm 4 mps 694 mmHg 86%
    12:00 +7°C° 0 mm 4 mps 694 mmHg 88%
    13:00 +7°C° 0 mm 4 mps 693 mmHg 87%
    14:00 +6°C° 0 mm 4 mps 693 mmHg 87%
    15:00 +6°C° 0 mm 4 mps 693 mmHg 86%
    16:00 +6°C° 0 mm 4 mps 693 mmHg 86%
    17:00 +6°C° 0 mm 4 mps 693 mmHg 85%
    18:00 +6°C° 0 mm 4 mps 692 mmHg 84%
    19:00 +6°C° 0 mm 4 mps 692 mmHg 84%
    20:00 +6°C° 0 mm 4 mps 692 mmHg 85%
    21:00 +6°C° 0 mm 4 mps 692 mmHg 85%
    22:00 +6°C° 0 mm 4 mps 692 mmHg 85%
    23:00 +6°C° 0 mm 4 mps 692 mmHg 85%

    17 December, Tuesday

    Time Temperature Precipitation Wind Pressure Humidity
    00:00 +6°C° 0 mm 4 mps 692 mmHg 84%
    01:00 +6°C° 0 mm 4 mps 692 mmHg 84%
    02:00 +6°C° 0 mm 4 mps 692 mmHg 84%
    03:00 +6°C° 0 mm 4 mps 692 mmHg 84%
    04:00 +5°C° 0 mm 4 mps 692 mmHg 84%
    05:00 +5°C° 0 mm 4 mps 691 mmHg 85%
    06:00 +5°C° 0 mm 3 mps 691 mmHg 85%
    07:00 +7°C° 0 mm 3 mps 692 mmHg 86%
    08:00 +7°C° 0 mm 3 mps 692 mmHg 87%
    09:00 +8°C° 0 mm 3 mps 692 mmHg 87%
    10:00 +8°C° 0 mm 3 mps 692 mmHg 89%
    11:00 +8°C° 0 mm 3 mps 692 mmHg 91%
    12:00 +9°C° 0 mm 3 mps 692 mmHg 92%
    13:00 +8°C° 0 mm 3 mps 692 mmHg 92%
    14:00 +8°C° 0 mm 3 mps 693 mmHg 91%
    15:00 +8°C° 0 mm 3 mps 693 mmHg 91%
    16:00 +7°C° 0 mm 3 mps 693 mmHg 89%
    17:00 +7°C° 0 mm 3 mps 693 mmHg 87%
    18:00 +7°C° 0 mm 3 mps 693 mmHg 85%
    19:00 +7°C° 0 mm 3 mps 694 mmHg 85%
    20:00 +7°C° 0 mm 3 mps 694 mmHg 85%
    21:00 +7°C° 0 mm 3 mps 694 mmHg 86%
    22:00 +7°C° 0.1 mm 2 mps 694 mmHg 86%
    23:00 +7°C° 0.1 mm 2 mps 694 mmHg 87%

    18 December, Wednesday

    Time Temperature Precipitation Wind Pressure Humidity
    00:00 +7°C° 0.1 mm 2 mps 694 mmHg 88%
    01:00 +7°C° 0.1 mm 2 mps 694 mmHg 89%
    02:00 +7°C° 0.1 mm 2 mps 695 mmHg 89%
    03:00 +7°C° 0.1 mm 2 mps 695 mmHg 89%
    04:00 +7°C° 0.1 mm 2 mps 695 mmHg 89%
    05:00 +7°C° 0.1 mm 2 mps 695 mmHg 89%
    06:00 +7°C° 0.1 mm 2 mps 695 mmHg 89%
    07:00 +7°C° 0 mm 2 mps 695 mmHg 90%
    08:00 +7°C° 0 mm 2 mps 695 mmHg 90%
    09:00 +8°C° 0 mm 2 mps 696 mmHg 91%
    10:00 +8°C° 0.1 mm 2 mps 696 mmHg 92%
    11:00 +8°C° 0.1 mm 2 mps 695 mmHg 93%
    12:00 +8°C° 0.1 mm 2 mps 695 mmHg 94%
    13:00 +8°C° 0 mm 2 mps 695 mmHg 93%
    14:00 +8°C° 0 mm 2 mps 695 mmHg 93%
    15:00 +7°C° 0 mm 2 mps 694 mmHg 92%
    16:00 +7°C° 0 mm 2 mps 694 mmHg 91%
    17:00 +6°C° 0 mm 2 mps 694 mmHg 89%
    18:00 +6°C° 0 mm 2 mps 695 mmHg 88%
    19:00 +6°C° 0 mm 2 mps 695 mmHg 87%
    20:00 +5°C° 0 mm 2 mps 695 mmHg 86%
    21:00 +5°C° 0 mm 2 mps 695 mmHg 85%
    22:00 +5°C° 0 mm 2 mps 695 mmHg 84%
    23:00 +5°C° 0 mm 2 mps 694 mmHg 83%

    19 December, Thursday

    Time Temperature Precipitation Wind Pressure Humidity
    00:00 +4°C° 0 mm 2 mps 694 mmHg 82%
    01:00 +4°C° 0 mm 2 mps 694 mmHg 83%
    02:00 +4°C° 0 mm 2 mps 694 mmHg 83%
    03:00 +4°C° 0 mm 2 mps 693 mmHg 83%
    04:00 +4°C° 0 mm 2 mps 693 mmHg 82%
    05:00 +4°C° 0 mm 2 mps 693 mmHg 82%
    06:00 +4°C° 0 mm 2 mps 693 mmHg 81%
    07:00 +5°C° 0 mm 2 mps 693 mmHg 81%
    08:00 +6°C° 0 mm 2 mps 692 mmHg 81%
    09:00 +6°C° 0 mm 2 mps 692 mmHg 82%
    10:00 +8°C° 0 mm 1 mps 692 mmHg 84%
    11:00 +9°C° 0 mm 1 mps 691 mmHg 86%
    12:00 +10°C° 0 mm 1 mps 691 mmHg 88%
    13:00 +9°C° 0 mm 1 mps 690 mmHg 88%
    14:00 +9°C° 0 mm 1 mps 690 mmHg 87%
    15:00 +7°C° 0 mm 2 mps 689 mmHg 87%
    16:00 +7°C° 0 mm 2 mps 689 mmHg 87%
    17:00 +6°C° 0 mm 2 mps 689 mmHg 86%
    18:00 +5°C° 0 mm 3 mps 689 mmHg 85%
    19:00 +5°C° 0 mm 2 mps 688 mmHg 85%
    20:00 +5°C° 0 mm 2 mps 688 mmHg 85%
    21:00 +5°C° 0 mm 2 mps 688 mmHg 84%
    22:00 +5°C° 0 mm 2 mps 688 mmHg 85%
    23:00 +5°C° 0 mm 2 mps 688 mmHg 85%
    Show more